START_TIME,STEP,MOV.,P11,t_acc.,P23,t_acc.,P27,t_acc.,A4,t_acc.
1981-08-30 06:00:23.660 ,4,0,1.,4.8,0.,4.8,0.,4.8,0.,4.8
1981-08-30 06:00:28.460 ,4,0,1.,4.8,0.,4.8,0.,4.8,0.,4.8
1981-08-30 06:00:33.260 ,4,0,0.,4.8,0.,4.8,1.,4.8,0.,4.8
1981-08-30 06:00:38.060 ,4,0,0.,4.8,0.,4.8,1.,4.8,0.,4.8
1981-08-30 06:00:42.860 ,4,0,0.,4.8,1.,4.8,0.,4.8,0.,4.8
1981-08-30 06:00:47.660 ,3,0,2.,4.8,0.,4.8,0.,4.8,0.,4.8
1981-08-30 06:00:52.460 ,3,0,0.,4.8,0.,4.8,0.,4.8,0.,4.8
1981-08-30 06:00:57.260 ,3,0,0.,4.8,0.,4.8,0.,4.8,0.,4.8
1981-08-30 06:01:02.060 ,3,0,0.,4.8,0.,4.8,0.,4.8,0.,4.8
1981-08-30 06:01:06.860 ,3,0,1.,4.8,0.,4.8,0.,4.8,0.,4.8
1981-08-30 06:01:11.660 ,3,0,0.,4.8,0.,4.8,0.,4.8,0.,4.8
1981-08-30 06:01:16.460 ,3,0,0.,4.8,1.,4.8,0.,4.8,0.,4.8
1981-08-30 06:01:21.260 ,3,0,1.,4.8,0.,4.8,0.,4.8,0.,4.8
1981-08-30 06:01:26.060 ,3,0,1.,4.8,0.,4.8,0.,4.8,0.,4.8
1981-08-30 06:01:30.860 ,3,0,0.,4.8,0.,4.8,1.,4.8,0.,4.8
1981-08-30 06:01:35.660 ,2,0,1.,4.8,0.,4.8,0.,4.8,0.,4.8
1981-08-30 06:01:40.460 ,2,0,0.,4.8,0.,4.8,0.,4.8,0.,4.8
1981-08-30 06:01:45.260 ,2,0,0.,4.8,0.,4.8,0.,4.8,0.,4.8
1981-08-30 06:01:50.060 ,2,0,0.,4.8,0.,4.8,0.,4.8,0.,4.8
1981-08-30 06:01:54.860 ,2,0,1.,4.8,0.,4.8,0.,4.8,0.,4.8
1981-08-30 06:01:59.660 ,2,0,1.,4.8,0.,4.8,0.,4.8,0.,4.8
1981-08-30 06:02:04.460 ,2,0,0.,4.8,0.,4.8,0.,4.8,0.,4.8
1981-08-30 06:02:09.260 ,2,0,0.,4.8,0.,4.8,0.,4.8,0.,4.8
1981-08-30 06:02:14.060 ,2,0,0.,4.8,0.,4.8,0.,4.8,0.,4.8
1981-08-30 06:02:18.860 ,2,0,0.,4.8,0.,4.8,0.,4.8,0.,4.8
1981-08-30 06:02:23.660 ,1,0,0.,4.8,0.,4.8,0.,4.8,0.,4.8
1981-08-30 06:02:28.460 ,1,0,0.,4.8,0.,4.8,0.,4.8,0.,4.8
1981-08-30 06:02:33.260 ,1,0,0.,4.8,0.,4.8,0.,4.8,0.,4.8
1981-08-30 06:02:38.060 ,1,0,0.,4.8,0.,4.8,0.,4.8,0.,4.8
1981-08-30 06:02:42.860 ,1,0,0.,4.8,0.,4.8,0.,4.8,0.,4.8
1981-08-30 06:02:47.660 ,1,0,0.,4.8,0.,4.8,0.,4.8,0.,4.8
1981-08-30 06:02:52.460 ,1,0,0.,4.8,0.,4.8,0.,4.8,0.,4.8
1981-08-30 06:02:57.260 ,1,0,1.,4.8,0.,4.8,0.,4.8,0.,4.8
1981-08-30 06:03:02.060 ,1,0,0.,4.8,0.,4.8,0.,4.8,0.,4.8
1981-08-30 06:03:06.860 ,1,0,0.,4.8,0.,4.8,0.,4.8,0.,4.8
1981-08-30 06:03:11.660 ,0,0,0.,4.8,0.,4.8,0.,4.8,0.,4.8
1981-08-30 06:03:16.460 ,0,0,0.,4.8,0.,4.8,0.,4.8,0.,4.8
1981-08-30 06:03:21.260 ,0,0,0.,4.8,0.,4.8,0.,4.8,0.,4.8
1981-08-30 06:03:26.060 ,0,0,0.,4.8,0.,4.8,0.,4.8,0.,4.8
1981-08-30 06:03:30.860 ,0,0,0.,4.8,0.,4.8,0.,4.8,0.,4.8
1981-08-30 06:03:35.660 ,0,0,0.,4.8,0.,4.8,1.,4.8,0.,4.8
1981-08-30 06:03:40.460 ,0,0,0.,4.8,0.,4.8,0.,4.8,0.,4.8
1981-08-30 06:03:45.260 ,0,0,0.,4.8,0.,4.8,0.,4.8,0.,4.8
1981-08-30 06:03:50.060 ,0,0,1.,4.8,1.,4.8,0.,4.8,0.,4.8
1981-08-30 06:03:54.860 ,0,0,0.,4.8,0.,4.8,1.,4.8,0.,4.8
1981-08-30 06:03:59.660 ,0,0,0.,4.8,0.,4.8,0.,4.8,0.,4.8
1981-08-30 06:04:04.460 ,0,0,1.,4.8,0.,4.8,0.,4.8,0.,4.8
1981-08-30 06:04:09.260 ,0,0,0.,4.8,0.,4.8,0.,4.8,0.,4.8
1981-08-30 06:04:14.060 ,0,0,0.,4.8,0.,4.8,1.,4.8,0.,4.8
1981-08-30 06:04:18.860 ,0,0,2.,4.8,0.,4.8,0.,4.8,0.,4.8
1981-08-30 06:04:23.660 ,0,0,1.,4.8,0.,4.8,0.,4.8,0.,4.8
1981-08-30 06:04:28.460 ,0,0,0.,4.8,0.,4.8,0.,4.8,0.,4.8
1981-08-30 06:04:33.260 ,0,0,1.,4.8,0.,4.8,0.,4.8,0.,4.8
1981-08-30 06:04:38.060 ,0,0,0.,4.8,0.,4.8,0.,4.8,0.,4.8
1981-08-30 06:04:42.860 ,0,0,0.,4.8,0.,4.8,0.,4.8,0.,4.8
1981-08-30 06:04:47.660 ,1,0,,0,,0,,0,,0
1981-08-30 06:04:52.460 ,1,0,0.,4.8,0.,4.8,0.,4.8,0.,4.8
1981-08-30 06:04:57.260 ,1,0,0.,4.8,0.,4.8,0.,4.8,0.,4.8
1981-08-30 06:05:02.060 ,1,0,0.,4.8,0.,4.8,0.,4.8,0.,4.8
1981-08-30 06:05:06.860 ,1,0,1.,4.8,0.,4.8,0.,4.8,0.,4.8
1981-08-30 06:05:11.660 ,1,0,2.,4.8,0.,4.8,0.,4.8,0.,4.8
1981-08-30 06:05:16.460 ,1,0,0.,4.8,0.,4.8,1.,4.8,0.,4.8
1981-08-30 06:05:21.260 ,1,0,0.,4.8,0.,4.8,0.,4.8,0.,4.8
1981-08-30 06:05:26.060 ,1,0,1.,4.8,0.,4.8,0.,4.8,0.,4.8
1981-08-30 06:05:30.860 ,1,0,0.,4.8,0.,4.8,0.,4.8,0.,4.8
1981-08-30 06:05:35.660 ,2,0,1.,4.8,0.,4.8,0.,4.8,0.,4.8
1981-08-30 06:05:40.460 ,2,0,0.,4.8,0.,4.8,0.,4.8,0.,4.8
1981-08-30 06:05:45.260 ,2,0,0.,4.8,0.,4.8,0.,4.8,0.,4.8
1981-08-30 06:05:50.060 ,2,0,0.,4.8,0.,4.8,0.,4.8,0.,4.8
1981-08-30 06:05:54.860 ,2,0,0.,4.8,0.,4.8,0.,4.8,0.,4.8
1981-08-30 06:05:59.660 ,2,0,2.,4.8,0.,4.8,0.,4.8,0.,4.8
1981-08-30 06:06:04.460 ,2,0,0.,4.8,0.,4.8,0.,4.8,0.,4.8
1981-08-30 06:06:09.260 ,2,0,2.,4.8,0.,4.8,0.,4.8,0.,4.8
1981-08-30 06:06:14.060 ,2,0,0.,4.8,0.,4.8,0.,4.8,0.,4.8
1981-08-30 06:06:18.860 ,2,0,0.,4.8,0.,4.8,0.,4.8,0.,4.8
1981-08-30 06:06:23.660 ,3,0,0.,4.8,0.,4.8,0.,4.8,0.,4.8
1981-08-30 06:06:28.460 ,3,0,0.,4.8,1.,4.8,0.,4.8,0.,4.8
1981-08-30 06:06:33.260 ,3,0,1.,4.8,0.,4.8,0.,4.8,0.,4.8
1981-08-30 06:06:38.060 ,3,0,0.,4.8,0.,4.8,0.,4.8,0.,4.8
1981-08-30 06:06:42.860 ,3,0,1.,4.8,0.,4.8,0.,4.8,0.,4.8
1981-08-30 06:06:47.660 ,4,0,1.,4.8,0.,4.8,0.,4.8,0.,4.8
1981-08-30 06:06:52.460 ,4,0,0.,4.8,0.,4.8,0.,4.8,0.,4.8
1981-08-30 06:06:57.260 ,4,0,0.,4.8,0.,4.8,0.,4.8,0.,4.8
1981-08-30 06:07:02.060 ,4,0,0.,4.8,0.,4.8,0.,4.8,0.,4.8
1981-08-30 06:07:06.860 ,4,0,1.,4.8,0.,4.8,0.,4.8,0.,4.8
1981-08-30 06:07:11.660 ,5,0,0.,4.8,0.,4.8,0.,4.8,0.,4.8
1981-08-30 06:07:16.460 ,5,0,1.,4.8,0.,4.8,0.,4.8,0.,4.8
1981-08-30 06:07:21.260 ,5,0,0.,4.8,0.,4.8,1.,4.8,0.,4.8
1981-08-30 06:07:26.060 ,5,0,0.,4.8,0.,4.8,0.,4.8,0.,4.8
1981-08-30 06:07:30.860 ,5,0,1.,4.8,0.,4.8,0.,4.8,0.,4.8
1981-08-30 06:07:35.660 ,6,0,1.,4.8,0.,4.8,0.,4.8,0.,4.8
1981-08-30 06:07:40.460 ,6,0,0.,4.8,0.,4.8,0.,4.8,0.,4.8
1981-08-30 06:07:45.260 ,6,0,0.,4.8,0.,4.8,0.,4.8,0.,4.8
1981-08-30 06:07:50.060 ,6,0,0.,4.8,0.,4.8,0.,4.8,0.,4.8
1981-08-30 06:07:54.860 ,6,0,2.,4.8,0.,4.8,0.,4.8,0.,4.8
1981-08-30 06:07:59.660 ,7,0,0.,4.8,0.,4.8,0.,4.8,0.,4.8
1981-08-30 06:08:04.460 ,7,0,1.,4.8,0.,4.8,0.,4.8,0.,4.8
1981-08-30 06:08:09.260 ,7,0,2.,4.8,0.,4.8,1.,4.8,0.,4.8
1981-08-30 06:08:14.060 ,7,0,0.,4.8,0.,4.8,0.,4.8,0.,4.8
1981-08-30 06:08:18.860 ,7,0,0.,4.8,0.,4.8,0.,4.8,0.,4.8
1981-08-30 06:08:23.660 ,7,0,1.,4.8,0.,4.8,0.,4.8,0.,4.8
1981-08-30 06:08:28.460 ,7,0,0.,4.8,0.,4.8,0.,4.8,0.,4.8
1981-08-30 06:08:33.260 ,7,0,0.,4.8,0.,4.8,0.,4.8,0.,4.8
1981-08-30 06:08:38.060 ,7,0,0.,4.8,0.,4.8,0.,4.8,0.,4.8
1981-08-30 06:08:42.860 ,7,0,2.,4.8,0.,4.8,0.,4.8,0.,4.8
1981-08-30 06:08:47.660 ,6,0,0.,4.8,0.,4.8,1.,4.8,0.,4.8
1981-08-30 06:08:52.460 ,6,0,1.,4.8,0.,4.8,0.,4.8,0.,4.8
1981-08-30 06:08:57.260 ,6,0,0.,4.8,0.,4.8,0.,4.8,0.,4.8
1981-08-30 06:09:02.060 ,6,0,1.,4.8,0.,4.8,0.,4.8,0.,4.8
1981-08-30 06:09:06.860 ,6,0,1.,4.8,0.,4.8,0.,4.8,0.,4.8
1981-08-30 06:09:11.660 ,5,0,1.,4.8,0.,4.8,0.,4.8,0.,4.8
1981-08-30 06:09:16.460 ,5,0,1.,4.8,0.,4.8,1.,4.8,0.,4.8
1981-08-30 06:09:21.260 ,5,0,0.,4.8,0.,4.8,0.,4.8,0.,4.8
1981-08-30 06:09:26.060 ,5,0,1.,4.8,0.,4.8,0.,4.8,0.,4.8
1981-08-30 06:09:30.860 ,5,0,0.,4.8,0.,4.8,1.,4.8,0.,4.8
1981-08-30 06:09:35.660 ,4,0,0.,4.8,0.,4.8,0.,4.8,0.,4.8
1981-08-30 06:09:40.460 ,4,0,0.,4.8,0.,4.8,0.,4.8,0.,4.8
1981-08-30 06:09:45.260 ,4,0,0.,4.8,0.,4.8,1.,4.8,0.,4.8
1981-08-30 06:09:50.060 ,4,0,0.,4.8,1.,4.8,0.,4.8,0.,4.8
1981-08-30 06:09:54.860 ,4,0,0.,4.8,0.,4.8,0.,4.8,0.,4.8
1981-08-30 06:09:59.660 ,0,0,2.,4.8,0.,4.8,0.,4.8,0.,4.8
1981-08-30 06:10:04.460 ,0,0,0.,4.8,0.,4.8,0.,4.8,0.,4.8
1981-08-30 06:10:09.260 ,0,0,0.,4.8,0.,4.8,0.,4.8,0.,4.8
1981-08-30 06:10:14.060 ,0,0,1.,4.8,0.,4.8,0.,4.8,0.,4.8
1981-08-30 06:10:18.860 ,0,0,2.,4.8,0.,4.8,0.,4.8,0.,4.8
1981-08-30 06:10:23.660 ,0,0,0.,4.8,0.,4.8,1.,4.8,0.,4.8
1981-08-30 06:10:28.460 ,0,0,0.,4.8,0.,4.8,0.,4.8,0.,4.8
1981-08-30 06:10:33.260 ,0,0,0.,4.8,0.,4.8,0.,4.8,0.,4.8
1981-08-30 06:10:38.060 ,0,0,0.,4.8,0.,4.8,0.,4.8,0.,4.8
1981-08-30 06:10:42.860 ,0,0,1.,4.8,0.,4.8,0.,4.8,1.,4.8
1981-08-30 06:10:47.660 ,1,0,0.,4.8,0.,4.8,0.,4.8,0.,4.8
1981-08-30 06:10:52.460 ,1,0,1.,4.8,0.,4.8,0.,4.8,1.,4.8
1981-08-30 06:10:57.260 ,1,0,0.,4.8,0.,4.8,0.,4.8,0.,4.8
1981-08-30 06:11:02.060 ,1,0,0.,4.8,0.,4.8,0.,4.8,0.,4.8
1981-08-30 06:11:06.860 ,1,0,1.,4.8,0.,4.8,0.,4.8,0.,4.8
1981-08-30 06:11:11.660 ,0,0,3.,4.8,0.,4.8,1.,4.8,0.,4.8
1981-08-30 06:11:16.460 ,0,0,1.,4.8,0.,4.8,0.,4.8,0.,4.8
1981-08-30 06:11:21.260 ,0,0,0.,4.8,0.,4.8,0.,4.8,0.,4.8
1981-08-30 06:11:26.060 ,0,0,1.,4.8,0.,4.8,0.,4.8,0.,4.8
1981-08-30 06:11:30.860 ,0,0,0.,4.8,0.,4.8,0.,4.8,0.,4.8
1981-08-30 06:11:35.660 ,0,0,0.,4.8,0.,4.8,0.,4.8,0.,4.8
1981-08-30 06:11:40.460 ,0,0,1.,4.8,0.,4.8,0.,4.8,0.,4.8
1981-08-30 06:11:45.260 ,0,0,1.,4.8,0.,4.8,0.,4.8,0.,4.8
1981-08-30 06:11:50.060 ,0,0,0.,4.8,0.,4.8,0.,4.8,0.,4.8
1981-08-30 06:11:54.860 ,0,0,0.,4.8,0.,4.8,0.,4.8,0.,4.8
1981-08-30 06:11:59.660 ,1,0,0.,4.8,0.,4.8,0.,4.8,0.,4.8
1981-08-30 06:12:04.460 ,1,0,1.,4.8,0.,4.8,0.,4.8,0.,4.8
1981-08-30 06:12:09.260 ,1,0,,0,,0,,0,,0
1981-08-30 06:12:14.060 ,1,0,1.,4.8,0.,4.8,0.,4.8,0.,4.8
1981-08-30 06:12:18.860 ,1,0,0.,4.8,0.,4.8,0.,4.8,0.,4.8
1981-08-30 06:12:23.660 ,2,0,1.,4.8,0.,4.8,0.,4.8,0.,4.8
1981-08-30 06:12:28.460 ,2,0,0.,4.8,0.,4.8,0.,4.8,0.,4.8
1981-08-30 06:12:33.260 ,2,0,0.,4.8,0.,4.8,0.,4.8,0.,4.8
1981-08-30 06:12:38.060 ,2,0,0.,4.8,0.,4.8,0.,4.8,0.,4.8
1981-08-30 06:12:42.860 ,2,0,0.,4.8,0.,4.8,0.,4.8,0.,4.8
1981-08-30 06:12:47.660 ,3,0,0.,4.8,0.,4.8,0.,4.8,0.,4.8
1981-08-30 06:12:52.460 ,3,0,0.,4.8,0.,4.8,1.,4.8,0.,4.8
1981-08-30 06:12:57.260 ,3,0,0.,4.8,0.,4.8,1.,4.8,0.,4.8
1981-08-30 06:13:02.060 ,3,0,1.,4.8,0.,4.8,0.,4.8,0.,4.8
1981-08-30 06:13:06.860 ,3,0,0.,4.8,0.,4.8,0.,4.8,0.,4.8
1981-08-30 06:13:11.660 ,3,0,0.,4.8,0.,4.8,1.,4.8,0.,4.8
1981-08-30 06:13:16.460 ,3,0,0.,4.8,0.,4.8,0.,4.8,0.,4.8
1981-08-30 06:13:21.260 ,3,0,0.,4.8,0.,4.8,0.,4.8,0.,4.8
1981-08-30 06:13:26.060 ,3,0,0.,4.8,0.,4.8,0.,4.8,0.,4.8
1981-08-30 06:13:30.860 ,3,0,0.,4.8,0.,4.8,0.,4.8,0.,4.8
1981-08-30 06:13:35.660 ,4,0,0.,4.8,0.,4.8,0.,4.8,0.,4.8
1981-08-30 06:13:40.460 ,4,0,2.,4.8,0.,4.8,0.,4.8,0.,4.8
1981-08-30 06:13:45.260 ,4,0,0.,4.8,0.,4.8,1.,4.8,0.,4.8
1981-08-30 06:13:50.060 ,4,0,1.,4.8,0.,4.8,0.,4.8,0.,4.8
1981-08-30 06:13:54.860 ,4,0,0.,4.8,0.,4.8,0.,4.8,0.,4.8
1981-08-30 06:13:59.660 ,4,0,1.,4.8,0.,4.8,0.,4.8,0.,4.8
1981-08-30 06:14:04.460 ,4,0,0.,4.8,0.,4.8,0.,4.8,1.,4.8
1981-08-30 06:14:09.260 ,4,0,0.,4.8,0.,4.8,0.,4.8,0.,4.8
1981-08-30 06:14:14.060 ,4,0,0.,4.8,0.,4.8,0.,4.8,0.,4.8
1981-08-30 06:14:18.860 ,4,0,0.,4.8,0.,4.8,0.,4.8,0.,4.8
1981-08-30 06:14:23.660 ,5,0,1.,4.8,0.,4.8,0.,4.8,0.,4.8
1981-08-30 06:14:28.460 ,5,0,0.,4.8,0.,4.8,0.,4.8,0.,4.8
1981-08-30 06:14:33.260 ,5,0,2.,4.8,0.,4.8,0.,4.8,0.,4.8
1981-08-30 06:14:38.060 ,5,0,1.,4.8,0.,4.8,0.,4.8,0.,4.8
1981-08-30 06:14:42.860 ,5,0,0.,4.8,0.,4.8,0.,4.8,0.,4.8
1981-08-30 06:14:47.660 ,5,0,2.,4.8,0.,4.8,0.,4.8,0.,4.8
1981-08-30 06:14:52.460 ,5,0,1.,4.8,0.,4.8,0.,4.8,0.,4.8
1981-08-30 06:14:57.260 ,5,0,0.,4.8,0.,4.8,0.,4.8,0.,4.8
1981-08-30 06:15:02.060 ,5,0,0.,4.8,1.,4.8,0.,4.8,0.,4.8
1981-08-30 06:15:06.860 ,5,0,0.,4.8,0.,4.8,0.,4.8,0.,4.8
1981-08-30 06:15:11.660 ,0,0,0.,4.8,0.,4.8,0.,4.8,0.,4.8
1981-08-30 06:15:16.460 ,0,0,1.,4.8,0.,4.8,1.,4.8,0.,4.8
1981-08-30 06:15:21.260 ,0,0,0.,4.8,0.,4.8,2.,4.8,0.,4.8
1981-08-30 06:15:26.060 ,0,0,2.,4.8,0.,4.8,0.,4.8,0.,4.8
1981-08-30 06:15:30.860 ,0,0,0.,4.8,0.,4.8,0.,4.8,0.,4.8
1981-08-30 06:15:35.660 ,0,0,2.,4.8,0.,4.8,0.,4.8,0.,4.8
1981-08-30 06:15:40.460 ,0,0,0.,4.8,0.,4.8,0.,4.8,0.,4.8
1981-08-30 06:15:45.260 ,0,0,0.,4.8,0.,4.8,0.,4.8,0.,4.8
1981-08-30 06:15:50.060 ,0,0,1.,4.8,0.,4.8,0.,4.8,0.,4.8
1981-08-30 06:15:54.860 ,0,0,0.,4.8,0.,4.8,0.,4.8,0.,4.8
1981-08-30 06:15:59.660 ,7,0,0.,4.8,0.,4.8,0.,4.8,0.,4.8
1981-08-30 06:16:04.460 ,7,0,0.,4.8,0.,4.8,0.,4.8,0.,4.8
1981-08-30 06:16:09.260 ,7,0,0.,4.8,0.,4.8,0.,4.8,0.,4.8
1981-08-30 06:16:14.060 ,7,0,0.,4.8,0.,4.8,0.,4.8,0.,4.8
1981-08-30 06:16:18.860 ,7,0,0.,4.8,0.,4.8,0.,4.8,0.,4.8
1981-08-30 06:16:23.660 ,7,0,0.,4.8,0.,4.8,0.,4.8,0.,4.8
1981-08-30 06:16:28.460 ,7,0,1.,4.8,0.,4.8,0.,4.8,0.,4.8
1981-08-30 06:16:33.260 ,7,0,0.,4.8,0.,4.8,0.,4.8,0.,4.8
1981-08-30 06:16:38.060 ,7,0,1.,4.8,0.,4.8,1.,4.8,0.,4.8
1981-08-30 06:16:42.860 ,7,0,0.,4.8,0.,4.8,0.,4.8,0.,4.8
1981-08-30 06:16:47.660 ,7,0,0.,4.8,1.,4.8,1.,4.8,0.,4.8
1981-08-30 06:16:52.460 ,7,0,0.,4.8,0.,4.8,0.,4.8,0.,4.8
1981-08-30 06:16:57.260 ,7,0,0.,4.8,0.,4.8,0.,4.8,0.,4.8
1981-08-30 06:17:02.060 ,7,0,1.,4.8,0.,4.8,0.,4.8,0.,4.8
1981-08-30 06:17:06.860 ,7,0,0.,4.8,0.,4.8,0.,4.8,0.,4.8
1981-08-30 06:17:11.660 ,7,0,0.,4.8,0.,4.8,0.,4.8,0.,4.8
1981-08-30 06:17:16.460 ,7,0,0.,4.8,1.,4.8,1.,4.8,0.,4.8
1981-08-30 06:17:21.260 ,7,0,1.,4.8,1.,4.8,0.,4.8,0.,4.8
1981-08-30 06:17:26.060 ,7,0,1.,4.8,0.,4.8,0.,4.8,0.,4.8
1981-08-30 06:17:30.860 ,7,0,0.,4.8,0.,4.8,0.,4.8,0.,4.8
1981-08-30 06:17:35.660 ,6,0,0.,4.8,0.,4.8,0.,4.8,0.,4.8
1981-08-30 06:17:40.460 ,6,0,0.,4.8,1.,4.8,0.,4.8,0.,4.8
1981-08-30 06:17:45.260 ,6,0,0.,4.8,0.,4.8,0.,4.8,0.,4.8
1981-08-30 06:17:50.060 ,6,0,0.,4.8,0.,4.8,0.,4.8,0.,4.8
1981-08-30 06:17:54.860 ,6,0,2.,4.8,0.,4.8,0.,4.8,0.,4.8
1981-08-30 06:17:59.660 ,6,0,0.,4.8,0.,4.8,0.,4.8,0.,4.8
1981-08-30 06:18:04.460 ,6,0,0.,4.8,0.,4.8,1.,4.8,0.,4.8
1981-08-30 06:18:09.260 ,6,0,0.,4.8,0.,4.8,0.,4.8,0.,4.8
1981-08-30 06:18:14.060 ,6,0,1.,4.8,0.,4.8,0.,4.8,0.,4.8
1981-08-30 06:18:18.860 ,6,0,0.,4.8,0.,4.8,0.,4.8,0.,4.8
1981-08-30 06:18:23.660 ,5,0,0.,4.8,0.,4.8,0.,4.8,0.,4.8
1981-08-30 06:18:28.460 ,5,0,1.,4.8,0.,4.8,0.,4.8,0.,4.8
1981-08-30 06:18:33.260 ,5,0,0.,4.8,0.,4.8,0.,4.8,0.,4.8
1981-08-30 06:18:38.060 ,5,0,1.,4.8,0.,4.8,1.,4.8,0.,4.8
1981-08-30 06:18:42.860 ,5,0,0.,4.8,0.,4.8,0.,4.8,0.,4.8
1981-08-30 06:18:47.660 ,0,0,0.,4.8,0.,4.8,0.,4.8,0.,4.8
1981-08-30 06:18:52.460 ,0,0,1.,4.8,0.,4.8,1.,4.8,0.,4.8
1981-08-30 06:18:57.260 ,0,0,1.,4.8,0.,4.8,0.,4.8,0.,4.8
1981-08-30 06:19:02.060 ,0,0,1.,4.8,0.,4.8,0.,4.8,0.,4.8
1981-08-30 06:19:06.860 ,0,0,0.,4.8,0.,4.8,0.,4.8,0.,4.8
1981-08-30 06:21:07.460 ,0,0,,0,,0,,0,,0
1981-08-30 06:21:12.260 ,0,0,,0,,0,,0,,0
1981-08-30 06:21:17.060 ,0,0,,0,,0,,0,,0
1981-08-30 06:21:21.860 ,0,0,,0,,0,,0,,0
1981-08-30 06:21:26.660 ,0,0,1.,4.8,0.,4.8,0.,4.8,0.,4.8
1981-08-30 06:21:11.660 ,0,0,0.,4.8,0.,4.8,0.,4.8,0.,4.8
1981-08-30 06:21:16.460 ,0,0,1.,4.8,0.,4.8,0.,4.8,0.,4.8
1981-08-30 06:21:21.260 ,0,0,0.,4.8,0.,4.8,0.,4.8,0.,4.8
1981-08-30 06:21:26.060 ,0,0,0.,4.8,0.,4.8,0.,4.8,0.,4.8
1981-08-30 06:21:30.860 ,0,0,0.,4.8,0.,4.8,0.,4.8,0.,4.8
1981-08-30 06:21:35.660 ,1,0,0.,4.8,0.,4.8,0.,4.8,0.,4.8
1981-08-30 06:21:40.460 ,1,0,0.,4.8,0.,4.8,0.,4.8,0.,4.8
1981-08-30 06:21:45.260 ,1,0,1.,4.8,0.,4.8,1.,4.8,0.,4.8
1981-08-30 06:21:50.060 ,1,0,0.,4.8,0.,4.8,0.,4.8,0.,4.8
1981-08-30 06:21:54.860 ,1,0,0.,4.8,0.,4.8,0.,4.8,0.,4.8
1981-08-30 06:21:59.660 ,1,0,0.,4.8,0.,4.8,0.,4.8,0.,4.8
1981-08-30 06:22:04.460 ,1,0,0.,4.8,0.,4.8,0.,4.8,0.,4.8
1981-08-30 06:22:09.260 ,1,0,0.,4.8,0.,4.8,0.,4.8,0.,4.8
1981-08-30 06:22:14.060 ,1,0,0.,4.8,0.,4.8,0.,4.8,0.,4.8
1981-08-30 06:22:18.860 ,1,0,0.,4.8,0.,4.8,0.,4.8,0.,4.8
1981-08-30 06:22:23.660 ,0,0,0.,4.8,0.,4.8,0.,4.8,0.,4.8
1981-08-30 06:22:28.460 ,0,0,0.,4.8,0.,4.8,0.,4.8,0.,4.8
1981-08-30 06:22:33.260 ,0,0,0.,4.8,0.,4.8,0.,4.8,0.,4.8
1981-08-30 06:22:38.060 ,0,0,0.,4.8,0.,4.8,0.,4.8,0.,4.8
1981-08-30 06:22:42.860 ,0,0,1.,4.8,0.,4.8,0.,4.8,0.,4.8
1981-08-30 06:22:47.660 ,0,0,1.,4.8,0.,4.8,0.,4.8,0.,4.8
1981-08-30 06:22:52.460 ,0,0,1.,4.8,0.,4.8,0.,4.8,0.,4.8
1981-08-30 06:22:57.260 ,0,0,0.,4.8,0.,4.8,0.,4.8,0.,4.8
1981-08-30 06:23:02.060 ,0,0,2.,4.8,0.,4.8,0.,4.8,0.,4.8
1981-08-30 06:23:06.860 ,0,0,0.,4.8,0.,4.8,0.,4.8,0.,4.8
1981-08-30 06:23:11.660 ,0,0,0.,4.8,0.,4.8,1.,4.8,0.,4.8
1981-08-30 06:23:16.460 ,0,0,0.,4.8,0.,4.8,0.,4.8,0.,4.8
1981-08-30 06:23:21.260 ,0,0,0.,4.8,0.,4.8,0.,4.8,0.,4.8
1981-08-30 06:23:26.060 ,0,0,1.,4.8,0.,4.8,0.,4.8,0.,4.8
1981-08-30 06:23:30.860 ,0,0,1.,4.8,0.,4.8,0.,4.8,0.,4.8
1981-08-30 06:23:35.660 ,0,0,0.,4.8,0.,4.8,0.,4.8,0.,4.8
1981-08-30 06:23:40.460 ,0,0,0.,4.8,0.,4.8,0.,4.8,0.,4.8
1981-08-30 06:23:45.260 ,0,0,1.,4.8,0.,4.8,0.,4.8,0.,4.8
1981-08-30 06:23:50.060 ,0,0,1.,4.8,0.,4.8,0.,4.8,0.,4.8
1981-08-30 06:23:54.860 ,0,0,0.,4.8,0.,4.8,0.,4.8,0.,4.8
1981-08-30 06:23:59.660 ,1,0,0.,4.8,0.,4.8,0.,4.8,0.,4.8
1981-08-30 06:24:04.460 ,1,0,0.,4.8,0.,4.8,0.,4.8,0.,4.8
1981-08-30 06:24:09.260 ,1,0,0.,4.8,0.,4.8,0.,4.8,0.,4.8
1981-08-30 06:24:14.060 ,1,0,1.,4.8,1.,4.8,0.,4.8,0.,4.8
1981-08-30 06:24:18.860 ,1,0,0.,4.8,0.,4.8,1.,4.8,0.,4.8
1981-08-30 06:24:23.660 ,1,0,1.,4.8,0.,4.8,0.,4.8,0.,4.8
1981-08-30 06:24:28.460 ,1,0,1.,4.8,0.,4.8,0.,4.8,0.,4.8
1981-08-30 06:24:33.260 ,1,0,0.,4.8,0.,4.8,1.,4.8,0.,4.8
1981-08-30 06:24:38.060 ,1,0,0.,4.8,0.,4.8,0.,4.8,0.,4.8
1981-08-30 06:24:42.860 ,1,0,1.,4.8,0.,4.8,0.,4.8,0.,4.8
1981-08-30 06:24:47.660 ,2,0,0.,4.8,0.,4.8,0.,4.8,0.,4.8
1981-08-30 06:24:52.460 ,2,0,0.,4.8,0.,4.8,0.,4.8,0.,4.8
1981-08-30 06:24:57.260 ,2,0,0.,4.8,0.,4.8,0.,4.8,0.,4.8
1981-08-30 06:25:02.060 ,2,0,0.,4.8,0.,4.8,0.,4.8,0.,4.8
1981-08-30 06:25:06.860 ,2,0,2.,4.8,0.,4.8,0.,4.8,0.,4.8
1981-08-30 06:25:11.660 ,2,0,0.,4.8,0.,4.8,0.,4.8,0.,4.8
1981-08-30 06:25:16.460 ,2,0,1.,4.8,0.,4.8,0.,4.8,0.,4.8
1981-08-30 06:25:21.260 ,2,0,0.,4.8,0.,4.8,0.,4.8,0.,4.8
1981-08-30 06:25:26.060 ,2,0,3.,4.8,0.,4.8,0.,4.8,0.,4.8
1981-08-30 06:25:30.860 ,2,0,0.,4.8,0.,4.8,0.,4.8,0.,4.8
1981-08-30 06:25:35.660 ,3,0,0.,4.8,0.,4.8,0.,4.8,0.,4.8
1981-08-30 06:25:40.460 ,3,0,0.,4.8,0.,4.8,0.,4.8,0.,4.8
1981-08-30 06:25:45.260 ,3,0,1.,4.8,0.,4.8,0.,4.8,0.,4.8
1981-08-30 06:25:50.060 ,3,0,3.,4.8,0.,4.8,0.,4.8,0.,4.8
1981-08-30 06:25:54.860 ,3,0,0.,4.8,0.,4.8,0.,4.8,0.,4.8
1981-08-30 06:25:59.660 ,4,0,0.,4.8,0.,4.8,0.,4.8,0.,4.8
1981-08-30 06:26:04.460 ,4,0,1.,4.8,0.,4.8,0.,4.8,0.,4.8
1981-08-30 06:26:09.260 ,4,0,0.,4.8,0.,4.8,0.,4.8,0.,4.8
1981-08-30 06:26:14.060 ,4,0,0.,4.8,0.,4.8,0.,4.8,0.,4.8
1981-08-30 06:26:18.860 ,4,0,0.,4.8,1.,4.8,0.,4.8,0.,4.8
1981-08-30 06:26:23.660 ,5,0,0.,4.8,0.,4.8,0.,4.8,0.,4.8
1981-08-30 06:26:28.460 ,5,0,0.,4.8,0.,4.8,0.,4.8,0.,4.8
1981-08-30 06:26:33.260 ,5,0,0.,4.8,0.,4.8,0.,4.8,0.,4.8
1981-08-30 06:26:38.060 ,5,0,0.,4.8,0.,4.8,0.,4.8,0.,4.8
1981-08-30 06:26:42.860 ,5,0,0.,4.8,0.,4.8,0.,4.8,0.,4.8
1981-08-30 06:26:47.660 ,6,0,0.,4.8,0.,4.8,0.,4.8,0.,4.8
1981-08-30 06:26:52.460 ,6,0,1.,4.8,0.,4.8,0.,4.8,0.,4.8
1981-08-30 06:26:57.260 ,6,0,2.,4.8,0.,4.8,0.,4.8,0.,4.8
1981-08-30 06:27:02.060 ,6,0,0.,4.8,0.,4.8,0.,4.8,0.,4.8
1981-08-30 06:27:06.860 ,6,0,0.,4.8,0.,4.8,0.,4.8,0.,4.8
1981-08-30 06:27:11.660 ,7,0,0.,4.8,0.,4.8,0.,4.8,0.,4.8
1981-08-30 06:27:16.460 ,7,0,0.,4.8,0.,4.8,0.,4.8,0.,4.8
1981-08-30 06:27:21.260 ,7,0,0.,4.8,1.,4.8,0.,4.8,0.,4.8
1981-08-30 06:27:26.060 ,7,0,0.,4.8,0.,4.8,0.,4.8,0.,4.8
1981-08-30 06:27:30.860 ,7,0,0.,4.8,0.,4.8,1.,4.8,0.,4.8
1981-08-30 06:27:35.660 ,7,0,0.,4.8,0.,4.8,0.,4.8,0.,4.8
1981-08-30 06:27:40.460 ,7,0,2.,4.8,0.,4.8,0.,4.8,0.,4.8
1981-08-30 06:27:45.260 ,7,0,0.,4.8,0.,4.8,0.,4.8,0.,4.8
1981-08-30 06:27:50.060 ,7,0,0.,4.8,0.,4.8,0.,4.8,0.,4.8
1981-08-30 06:27:54.860 ,7,0,0.,4.8,0.,4.8,0.,4.8,0.,4.8
1981-08-30 06:27:59.660 ,6,0,0.,4.8,0.,4.8,0.,4.8,0.,4.8
1981-08-30 06:28:04.460 ,6,0,0.,4.8,0.,4.8,0.,4.8,0.,4.8
1981-08-30 06:28:09.260 ,6,0,0.,4.8,0.,4.8,0.,4.8,0.,4.8
1981-08-30 06:28:14.060 ,6,0,0.,4.8,0.,4.8,0.,4.8,0.,4.8
1981-08-30 06:28:18.860 ,6,0,0.,4.8,0.,4.8,1.,4.8,0.,4.8
1981-08-30 06:28:23.660 ,5,0,0.,4.8,0.,4.8,0.,4.8,0.,4.8
1981-08-30 06:28:28.460 ,5,0,0.,4.8,0.,4.8,0.,4.8,0.,4.8
1981-08-30 06:28:33.260 ,5,0,0.,4.8,0.,4.8,0.,4.8,0.,4.8
1981-08-30 06:28:38.060 ,5,0,0.,4.8,0.,4.8,0.,4.8,0.,4.8
1981-08-30 06:28:42.860 ,5,0,0.,4.8,0.,4.8,0.,4.8,0.,4.8
1981-08-30 06:28:47.660 ,4,0,1.,4.8,0.,4.8,0.,4.8,0.,4.8
1981-08-30 06:28:52.460 ,4,0,0.,4.8,0.,4.8,0.,4.8,0.,4.8
1981-08-30 06:28:57.260 ,4,0,0.,4.8,0.,4.8,0.,4.8,0.,4.8
1981-08-30 06:29:02.060 ,4,0,0.,4.8,0.,4.8,0.,4.8,0.,4.8
1981-08-30 06:29:06.860 ,4,0,0.,4.8,0.,4.8,0.,4.8,0.,4.8
1981-08-30 06:29:11.660 ,3,0,0.,4.8,0.,4.8,0.,4.8,0.,4.8
1981-08-30 06:29:16.460 ,3,0,0.,4.8,0.,4.8,0.,4.8,0.,4.8
1981-08-30 06:29:21.260 ,3,0,0.,4.8,0.,4.8,0.,4.8,0.,4.8
1981-08-30 06:29:26.060 ,3,0,0.,4.8,1.,4.8,0.,4.8,0.,4.8
1981-08-30 06:29:30.860 ,3,0,0.,4.8,0.,4.8,0.,4.8,0.,4.8
1981-08-30 06:29:35.660 ,2,0,0.,4.8,0.,4.8,0.,4.8,0.,4.8
1981-08-30 06:29:40.460 ,2,0,0.,4.8,0.,4.8,0.,4.8,0.,4.8
1981-08-30 06:29:45.260 ,2,0,0.,4.8,0.,4.8,0.,4.8,0.,4.8
1981-08-30 06:29:50.060 ,2,0,0.,4.8,0.,4.8,0.,4.8,0.,4.8
1981-08-30 06:29:54.860 ,2,0,1.,4.8,0.,4.8,0.,4.8,0.,4.8
1981-08-30 06:29:59.660 ,1,0,0.,4.8,0.,4.8,0.,4.8,0.,4.8
1981-08-30 06:30:04.460 ,1,0,0.,4.8,0.,4.8,0.,4.8,0.,4.8
1981-08-30 06:30:09.260 ,1,0,0.,4.8,0.,4.8,0.,4.8,0.,4.8
1981-08-30 06:30:14.060 ,1,0,0.,4.8,0.,4.8,0.,4.8,0.,4.8
1981-08-30 06:30:18.860 ,1,0,0.,4.8,0.,4.8,0.,4.8,0.,4.8
1981-08-30 06:30:23.660 ,0,0,1.,4.8,0.,4.8,0.,4.8,0.,4.8
1981-08-30 06:30:28.460 ,0,0,1.,4.8,0.,4.8,0.,4.8,0.,4.8
1981-08-30 06:30:33.260 ,0,0,0.,4.8,0.,4.8,0.,4.8,0.,4.8
1981-08-30 06:30:38.060 ,0,0,0.,4.8,0.,4.8,0.,4.8,0.,4.8
1981-08-30 06:30:42.860 ,0,0,0.,4.8,1.,4.8,0.,4.8,0.,4.8
1981-08-30 06:30:47.660 ,0,0,2.,4.8,0.,4.8,0.,4.8,0.,4.8
1981-08-30 06:30:52.460 ,0,0,0.,4.8,0.,4.8,0.,4.8,0.,4.8
1981-08-30 06:30:57.260 ,0,0,0.,4.8,0.,4.8,0.,4.8,0.,4.8
1981-08-30 06:31:02.060 ,0,0,0.,4.8,0.,4.8,0.,4.8,0.,4.8
1981-08-30 06:31:06.860 ,0,0,0.,4.8,0.,4.8,0.,4.8,0.,4.8
1981-08-30 06:30:23.660 ,0,0,1.,4.8,0.,4.8,0.,4.8,0.,4.8
1981-08-30 06:30:28.460 ,0,0,1.,4.8,0.,4.8,0.,4.8,0.,4.8
1981-08-30 06:30:33.260 ,0,0,0.,4.8,0.,4.8,0.,4.8,0.,4.8
1981-08-30 06:30:38.060 ,0,0,0.,4.8,0.,4.8,0.,4.8,0.,4.8
1981-08-30 06:30:42.860 ,0,0,0.,4.8,1.,4.8,0.,4.8,0.,4.8
1981-08-30 06:30:47.660 ,0,0,2.,4.8,0.,4.8,0.,4.8,0.,4.8
1981-08-30 06:30:52.460 ,0,0,0.,4.8,0.,4.8,0.,4.8,0.,4.8
1981-08-30 06:30:57.260 ,0,0,0.,4.8,0.,4.8,0.,4.8,0.,4.8
1981-08-30 06:31:02.060 ,0,0,0.,4.8,0.,4.8,0.,4.8,0.,4.8
1981-08-30 06:31:06.860 ,0,0,0.,4.8,0.,4.8,0.,4.8,0.,4.8
1981-08-30 06:31:11.660 ,1,0,0.,4.8,0.,4.8,0.,4.8,0.,4.8
1981-08-30 06:31:16.460 ,1,0,1.,4.8,0.,4.8,0.,4.8,0.,4.8
1981-08-30 06:31:21.260 ,1,0,0.,4.8,0.,4.8,0.,4.8,0.,4.8
1981-08-30 06:31:26.060 ,1,0,0.,4.8,0.,4.8,0.,4.8,0.,4.8
1981-08-30 06:31:30.860 ,1,0,1.,4.8,0.,4.8,0.,4.8,0.,4.8
1981-08-30 06:31:35.660 ,2,0,0.,4.8,0.,4.8,0.,4.8,0.,4.8
1981-08-30 06:31:40.460 ,2,0,1.,4.8,0.,4.8,0.,4.8,0.,4.8
1981-08-30 06:31:45.260 ,2,0,0.,4.8,0.,4.8,0.,4.8,0.,4.8
1981-08-30 06:31:50.060 ,2,0,0.,4.8,0.,4.8,0.,4.8,0.,4.8
1981-08-30 06:31:54.860 ,2,0,0.,4.8,0.,4.8,0.,4.8,0.,4.8
1981-08-30 06:31:59.660 ,3,0,0.,4.8,0.,4.8,0.,4.8,0.,4.8
1981-08-30 06:32:04.460 ,3,0,0.,4.8,0.,4.8,0.,4.8,0.,4.8
1981-08-30 06:32:09.260 ,3,0,0.,4.8,0.,4.8,0.,4.8,0.,4.8
1981-08-30 06:32:14.060 ,3,0,0.,4.8,0.,4.8,0.,4.8,0.,4.8
1981-08-30 06:32:18.860 ,3,0,0.,4.8,0.,4.8,0.,4.8,0.,4.8
1981-08-30 06:32:23.660 ,3,0,0.,4.8,0.,4.8,0.,4.8,0.,4.8
1981-08-30 06:32:28.460 ,3,0,0.,4.8,0.,4.8,0.,4.8,0.,4.8
1981-08-30 06:32:33.260 ,3,0,0.,4.8,0.,4.8,0.,4.8,0.,4.8
1981-08-30 06:32:38.060 ,3,0,0.,4.8,0.,4.8,0.,4.8,0.,4.8
1981-08-30 06:32:42.860 ,3,0,0.,4.8,0.,4.8,0.,4.8,0.,4.8
1981-08-30 06:32:47.660 ,4,0,0.,4.8,0.,4.8,0.,4.8,0.,4.8
1981-08-30 06:32:52.460 ,4,0,2.,4.8,0.,4.8,0.,4.8,0.,4.8
1981-08-30 06:32:57.260 ,4,0,2.,4.8,0.,4.8,1.,4.8,0.,4.8
1981-08-30 06:33:02.060 ,4,0,1.,4.8,0.,4.8,0.,4.8,0.,4.8
1981-08-30 06:33:06.860 ,4,0,0.,4.8,0.,4.8,0.,4.8,0.,4.8
1981-08-30 06:33:11.660 ,4,0,0.,4.8,0.,4.8,0.,4.8,0.,4.8
1981-08-30 06:33:16.460 ,4,0,0.,4.8,0.,4.8,0.,4.8,0.,4.8
1981-08-30 06:33:21.260 ,4,0,0.,4.8,0.,4.8,0.,4.8,0.,4.8
1981-08-30 06:33:26.060 ,4,0,2.,4.8,0.,4.8,0.,4.8,0.,4.8
1981-08-30 06:33:30.860 ,4,0,0.,4.8,0.,4.8,0.,4.8,0.,4.8
1981-08-30 06:33:35.660 ,5,0,2.,4.8,0.,4.8,0.,4.8,0.,4.8
1981-08-30 06:33:40.460 ,5,0,0.,4.8,0.,4.8,0.,4.8,0.,4.8
1981-08-30 06:33:45.260 ,5,0,0.,4.8,0.,4.8,0.,4.8,0.,4.8
1981-08-30 06:33:50.060 ,5,0,1.,4.8,0.,4.8,0.,4.8,0.,4.8
1981-08-30 06:33:54.860 ,5,0,1.,4.8,0.,4.8,0.,4.8,0.,4.8
1981-08-30 06:33:59.660 ,5,0,0.,4.8,0.,4.8,0.,4.8,0.,4.8
1981-08-30 06:34:04.460 ,5,0,1.,4.8,0.,4.8,0.,4.8,0.,4.8
1981-08-30 06:34:09.260 ,5,0,0.,4.8,0.,4.8,0.,4.8,0.,4.8
1981-08-30 06:34:14.060 ,5,0,0.,4.8,0.,4.8,0.,4.8,0.,4.8